Wind_Speed
25 25 26 27 26 26 26 25 25 25 25 25 25 24 23 23 22 22 22 22 22 21 21 21 21 21 22 22 22 23 22 22 22 22 21 21 21 22 21 20 19 19 19 19
27 26 27 28 27 27 27 27 27 27 27 27 27 26 25 24 24 23 23 23 23 23 23 23 23 23 23 23 23 23 23 23 23 23 23 22 22 22 23 22 21 21 21 21
28 27 28 29 28 28 28 28 28 28 28 28 27 27 27 27 27 26 25 25 24 24 24 24 25 25 25 25 25 25 24 24 24 24 24 24 23 23 23 23 23 23 22 22
29 29 30 29 27 28 28 28 29 29 28 27 27 27 28 28 28 27 26 26 26 26 25 25 25 26 26 26 26 26 25 24 25 25 25 24 25 24 23 23 23 22 22 22
30 30 30 30 29 28 28 29 28 28 28 28 28 29 29 28 28 28 28 27 27 27 27 27 27 28 28 27 27 27 26 25 25 25 25 25 25 25 24 24 23 23 23 23
30 30 31 31 30 29 29 29 28 29 29 29 29 29 29 28 28 28 29 28 28 28 28 28 28 28 27 27 27 27 27 26 26 26 25 25 25 24 24 23 24 24 24 24
28 29 31 30 30 29 29 29 29 29 29 30 30 30 30 29 29 29 29 29 28 28 28 28 28 28 27 27 27 27 27 27 26 26 25 25 25 25 25 26 26 26 26 25
27 28 29 29 29 29 29 29 29 29 29 30 30 30 30 30 29 28 29 29 28 28 28 28 28 27 27 27 27 27 27 26 26 26 26 26 26 26 27 27 28 27 27 27
26 27 28 28 29 29 29 29 29 30 30 30 30 30 30 31 30 29 29 28 28 28 28 28 28 27 27 26 27 27 28 27 27 27 26 26 26 26 27 28 28 28 28 28
27 27 27 28 28 28 29 29 29 28 28 29 29 29 29 30 30 30 29 28 28 28 28 28 28 28 27 26 26 27 28 28 27 27 27 26 26 27 27 27 28 29 29 29
27 27 28 28 28 28 27 28 28 28 28 28 28 28 29 29 29 30 30 29 29 29 29 28 27 27 27 27 27 28 29 29 28 28 27 28 28 28 28 28 28 28 29 29
25 26 26 26 26 26 26 26 27 27 27 27 28 29 29 29 29 29 29 29 28 28 28 28 28 27 27 28 28 29 30 29 28 28 28 28 28 28 29 29 29 30 30 30
24 25 25 24 24 25 25 26 26 26 27 28 28 29 29 28 29 29 29 29 29 28 28 28 28 27 28 28 28 28 28 28 28 28 28 29 29 29 29 30 31 31 32 32
22 23 23 23 24 24 24 25 25 26 26 27 28 28 29 29 30 30 29 29 29 29 29 29 29 29 29 29 29 28 28 29 29 29 29 29 29 30 30 31 32 32 33 33
22 22 23 23 23 23 24 24 25 26 26 26 26 27 27 28 28 28 27 28 28 29 29 29 29 30 30 30 29 29 29 29 30 30 30 30 30 30 30 31 32 32 33 33
21 21 22 22 22 22 22 22 23 23 24 25 25 26 27 27 27 27 27 28 27 28 28 28 28 29 30 30 29 29 30 30 30 30 30 30 31 31 31 31 32 32 32 32
21 21 21 21 20 21 21 21 21 21 22 23 23 24 25 25 26 26 26 27 27 27 28 27 27 27 28 28 29 29 29 29 30 30 30 30 30 30 30 31 32 32 32 32
20 20 20 20 20 20 20 20 20 19 20 21 22 22 23 23 24 24 24 24 24 25 25 26 26 27 27 27 28 29 29 30 30 29 29 30 30 30 30 30 31 31 31 31
17 17 17 17 18 19 19 19 18 19 19 20 21 21 21 22 22 22 23 23 23 23 23 24 25 25 26 26 27 28 28 29 29 30 30 30 30 30 30 30 30 30 30 30
15 15 14 15 15 16 16 17 17 17 18 19 19 20 21 21 21 21 22 22 22 23 23 24 24 24 24 25 26 27 28 28 28 28 29 30 30 30 31 31 31 31 31 31
15 14 14 15 15 15 16 16 16 17 17 18 18 19 19 20 20 21 21 22 22 23 23 24 24 24 24 24 24 25 26 27 28 28 28 29 29 29 30 31 31 32 32 31
14 13 14 14 14 14 15 15 16 16 17 17 17 17 18 19 20 20 21 21 22 22 23 23 23 23 23 23 24 24 25 25 26 27 28 28 28 28 29 29 29 29 30 30
13 14 14 14 14 14 14 15 15 16 16 17 17 17 18 19 20 20 20 21 22 22 23 23 23 23 23 23 24 24 24 24 24 25 25 25 25 25 25 25 26 26 27 28
13 13 13 13 14 14 15 16 16 16 17 17 18 18 19 19 20 21 21 21 21 22 22 23 23 23 23 23 23 23 24 24 24 23 23 23 23 23 23 24 24 25 25 25
14 14 14 14 15 16 17 17 17 17 17 18 18 19 19 19 19 19 20 20 21 22 22 23 23 23 23 23 23 23 22 22 22 22 22 22 22 23 23 24 24 25 25 25
13 14 15 15 16 16 16 16 17 17 18 18 18 18 19 19 19 19 20 20 20 21 21 21 21 21 22 22 23 22 22 21 21 22 22 21 22 22 23 23 24 24 24 24
13 14 14 15 15 16 17 17 17 18 18 17 18 18 19 19 18 19 19 19 19 20 20 21 21 21 21 21 21 22 22 21 21 21 21 22 22 22 22 22 22 22 23 23
Wind_Direction
251 252 252 254 255 254 253 253 257 260 260 262 265 265 266 266 266 269 269 269 270 267 265 267 268 269 268 268 269 270 269 266 265 265 265 265 263 260 259 257 257 258 257 256
253 254 255 254 254 255 255 256 257 259 259 261 262 263 263 265 265 267 268 268 269 267 265 265 266 266 267 267 269 270 270 267 266 266 264 264 261 261 258 257 257 258 256 255
253 256 257 256 255 255 256 257 259 259 260 261 262 261 262 263 264 266 267 268 268 268 266 265 264 264 265 266 267 267 268 267 266 267 265 262 261 261 259 257 256 256 253 253
255 256 257 257 257 256 256 258 259 259 259 259 260 260 261 262 263 266 266 267 269 268 267 265 265 265 265 265 266 266 267 268 267 266 264 262 261 259 258 257 254 253 252 251
256 258 259 258 257 258 258 259 259 259 259 259 260 260 261 262 263 265 265 266 267 268 269 266 265 266 266 265 263 263 264 265 266 266 264 263 261 259 259 258 255 252 250 249
255 255 257 258 257 258 260 261 260 260 259 260 260 261 262 263 262 262 263 264 265 267 268 267 266 267 266 265 263 262 262 263 264 266 266 263 261 261 258 257 255 253 252 250
252 254 256 258 259 259 260 262 262 261 261 261 261 261 262 262 262 261 262 264 264 265 266 266 267 267 266 265 264 263 263 263 263 264 265 265 264 262 259 258 258 257 254 251
253 255 257 258 259 258 261 263 264 263 263 262 261 260 259 259 260 261 261 263 263 263 265 266 266 265 264 264 264 264 263 263 263 263 264 265 264 262 261 261 260 257 255 254
253 255 257 260 261 260 261 263 264 264 263 262 260 259 258 258 259 260 262 262 263 262 262 264 264 264 263 264 265 263 263 263 263 263 263 264 263 262 261 260 259 257 257 257
254 256 258 259 261 261 261 262 264 263 263 262 260 258 257 256 257 258 261 263 263 264 264 264 263 264 265 266 266 265 264 263 263 262 262 263 265 263 260 259 258 258 257 257
257 258 258 259 260 261 262 261 262 262 263 261 259 257 255 255 256 258 260 263 263 264 265 266 264 265 266 267 267 267 265 265 264 265 265 265 265 262 259 258 257 257 257 258
260 260 260 261 263 264 262 262 262 262 261 260 258 255 254 254 254 256 259 261 261 263 265 265 265 265 266 266 266 266 264 263 262 263 263 264 263 260 259 258 258 258 258 258
261 262 263 265 266 266 265 264 263 262 260 258 257 255 254 253 253 255 258 259 260 262 263 264 265 265 266 267 266 265 264 261 261 261 263 264 262 259 259 259 258 258 259 259
262 262 263 265 267 268 267 265 264 262 260 259 257 256 254 253 254 255 258 260 260 261 262 263 264 265 266 267 266 265 263 261 262 263 263 262 261 260 260 260 260 259 259 259
262 263 263 264 266 267 266 263 263 262 259 257 256 254 253 254 255 257 258 260 261 262 263 264 265 265 266 266 265 263 262 262 261 263 263 262 262 261 261 261 261 260 259 257
263 264 265 265 265 265 265 264 265 264 262 258 255 255 255 255 255 256 258 261 264 265 265 266 267 267 266 265 264 262 261 262 263 264 264 264 263 262 261 261 261 260 258 258
265 265 266 266 265 265 266 266 265 266 265 260 257 257 258 257 257 259 260 262 264 266 265 266 267 267 267 266 264 264 263 264 265 265 266 265 263 262 262 262 261 259 258 257
266 265 264 265 266 264 265 267 269 270 266 262 259 258 259 259 259 259 261 263 265 267 267 267 268 268 268 266 266 266 266 266 267 266 265 265 264 262 262 262 260 259 258 257
270 268 264 265 264 265 266 268 269 270 269 263 259 260 261 261 261 260 261 264 266 268 268 268 268 269 269 268 268 268 268 268 267 265 265 265 263 262 262 261 260 259 257 257
272 269 266 266 266 268 270 271 272 273 271 267 264 263 262 262 261 261 264 266 267 268 268 269 269 271 270 269 269 270 269 268 267 267 267 266 265 264 262 260 259 259 259 258
271 268 267 267 269 272 273 276 276 276 276 272 268 265 264 263 262 263 266 268 268 267 267 268 269 270 270 271 273 273 272 271 269 268 267 266 265 263 262 260 259 258 258 258
269 267 268 268 269 273 274 276 276 277 277 273 268 265 265 266 265 266 268 268 268 268 268 269 269 270 271 272 274 274 273 273 271 269 268 267 266 264 262 261 260 260 259 258
267 269 269 268 268 271 272 274 276 278 278 274 270 269 269 270 271 271 271 269 268 269 269 269 269 271 272 273 273 273 273 272 272 271 270 269 266 262 260 260 261 261 260 259
270 272 273 271 272 274 276 278 277 277 277 276 276 276 276 275 274 274 273 271 270 269 268 269 271 272 272 272 272 273 274 273 271 270 270 269 266 263 262 261 261 262 261 259
272 273 274 272 272 275 278 277 276 276 277 278 278 279 280 280 279 276 273 271 271 270 270 271 271 272 272 271 272 273 273 272 270 270 272 271 268 266 264 263 263 262 261 260
276 277 278 277 276 277 279 278 278 280 279 278 276 278 281 282 282 281 279 276 274 274 273 273 273 274 274 273 274 272 270 271 271 270 270 270 269 268 266 263 263 262 262 261
281 279 277 276 278 279 281 282 282 281 279 278 278 279 281 283 284 285 284 282 280 279 278 277 276 275 275 274 273 272 271 270 269 268 268 267 267 267 266 264 264 263 262 262
Height
5791 5793 5794 5795 5796 5798 5799 5800 5802 5803 5803 5804 5804 5804 5804 5804 5804 5804 5804 5804 5803 5803 5803 5803 5803 5803 5803 5803 5803 5803 5803 5803 5803 5803 5803 5803 5803 5804 5804 5804 5805 5806 5806 5807
5783 5784 5785 5786 5788 5789 5791 5792 5793 5794 5795 5796 5796 5797 5797 5797 5797 5797 5797 5797 5797 5796 5796 5796 5796 5796 5796 5796 5796 5796 5796 5796 5796 5796 5796 5796 5797 5797 5798 5798 5798 5799 5800 5801
5775 5776 5777 5778 5780 5781 5782 5783 5785 5786 5788 5787 5788 5789 5789 5790 5790 5790 5790 5790 5790 5789 5789 5789 5789 5789 5789 5789 5789 5789 5789 5789 5789 5789 5789 5789 5790 5790 5791 5791 5792 5793 5794 5795
5767 5768 5768 5772 5771 5773 5774 5775 5775 5776 5778 5779 5780 5780 5781 5781 5782 5782 5782 5782 5781 5781 5781 5781 5781 5780 5780 5781 5781 5781 5782 5781 5782 5781 5781 5782 5782 5783 5784 5784 5785 5786 5787 5788
5758 5759 5760 5762 5763 5764 5765 5766 5767 5768 5769 5770 5771 5771 5772 5772 5773 5774 5774 5773 5773 5773 5773 5773 5772 5772 5772 5772 5772 5773 5773 5774 5774 5773 5774 5774 5775 5776 5776 5777 5778 5779 5780 5781
5749 5750 5752 5753 5754 5755 5757 5757 5758 5759 5760 5761 5762 5763 5764 5764 5764 5765 5765 5765 5765 5765 5764 5764 5764 5763 5763 5763 5764 5764 5765 5765 5766 5766 5766 5766 5767 5768 5769 5769 5770 5771 5773 5774
5739 5740 5742 5744 5745 5747 5749 5749 5749 5750 5751 5752 5753 5754 5755 5755 5755 5756 5756 5756 5756 5756 5756 5755 5755 5754 5755 5755 5756 5756 5756 5757 5757 5758 5758 5758 5759 5760 5761 5761 5762 5763 5765 5766
5731 5732 5735 5734 5736 5737 5738 5739 5740 5740 5741 5742 5743 5744 5745 5745 5746 5747 5747 5747 5747 5747 5747 5747 5746 5746 5747 5747 5747 5748 5748 5749 5749 5750 5750 5750 5751 5752 5752 5753 5754 5755 5756 5757
5724 5726 5725 5725 5726 5727 5728 5729 5730 5731 5732 5732 5733 5734 5735 5736 5737 5738 5738 5739 5739 5739 5739 5739 5738 5738 5738 5739 5739 5739 5740 5740 5741 5741 5742 5742 5743 5743 5744 5745 5746 5747 5748 5749
5714 5715 5716 5717 5717 5718 5719 5720 5720 5721 5722 5722 5723 5725 5726 5727 5728 5729 5730 5730 5730 5730 5730 5730 5730 5730 5730 5730 5730 5731 5731 5732 5732 5733 5733 5733 5734 5735 5736 5737 5738 5739 5740 5741
5705 5707 5707 5708 5708 5709 5710 5710 5711 5711 5712 5713 5714 5715 5716 5717 5719 5720 5721 5721 5721 5722 5722 5722 5722 5722 5722 5722 5722 5722 5723 5723 5724 5723 5723 5724 5725 5726 5727 5728 5729 5730 5731 5732
5698 5698 5699 5699 5700 5700 5700 5701 5702 5702 5703 5703 5704 5706 5707 5708 5710 5711 5712 5712 5713 5713 5713 5713 5713 5713 5714 5714 5714 5714 5714 5714 5714 5715 5715 5716 5716 5717 5718 5719 5721 5722 5723 5724
5690 5690 5690 5691 5691 5691 5692 5692 5693 5693 5694 5694 5695 5696 5697 5699 5700 5702 5703 5703 5704 5704 5704 5704 5704 5704 5705 5705 5705 5704 5704 5704 5705 5705 5706 5706 5707 5708 5709 5710 5711 5712 5713 5714
5681 5682 5683 5683 5684 5683 5684 5684 5684 5684 5685 5685 5686 5687 5688 5690 5691 5692 5693 5694 5695 5695 5695 5696 5696 5696 5696 5695 5695 5695 5695 5696 5696 5696 5697 5697 5698 5698 5699 5700 5701 5702 5703 5705
5674 5675 5675 5675 5676 5675 5675 5675 5675 5676 5676 5676 5677 5678 5679 5681 5682 5683 5684 5685 5686 5686 5686 5686 5686 5686 5686 5685 5685 5685 5686 5686 5687 5687 5687 5688 5688 5689 5690 5690 5691 5692 5693 5694
5667 5667 5667 5668 5668 5667 5667 5667 5667 5667 5667 5668 5669 5670 5671 5672 5673 5674 5675 5676 5677 5677 5677 5677 5677 5676 5676 5676 5675 5676 5676 5677 5677 5677 5678 5678 5679 5679 5680 5680 5681 5682 5683 5684
5660 5660 5660 5660 5660 5660 5660 5659 5659 5659 5659 5659 5660 5661 5662 5663 5664 5665 5666 5667 5667 5668 5667 5667 5667 5667 5667 5666 5666 5666 5667 5667 5667 5668 5668 5668 5669 5669 5670 5670 5671 5672 5673 5675
5653 5653 5653 5653 5653 5652 5652 5652 5652 5651 5651 5652 5652 5653 5654 5655 5656 5657 5658 5658 5658 5658 5658 5658 5658 5658 5658 5657 5657 5657 5657 5657 5657 5657 5658 5658 5659 5659 5660 5660 5661 5662 5663 5665
5646 5646 5646 5646 5646 5646 5646 5646 5645 5645 5645 5644 5645 5645 5646 5647 5648 5649 5649 5650 5650 5650 5650 5650 5649 5649 5648 5648 5648 5647 5647 5647 5647 5647 5648 5648 5649 5649 5650 5651 5651 5652 5653 5655
5640 5640 5640 5640 5640 5640 5640 5639 5639 5639 5638 5638 5638 5638 5639 5639 5640 5641 5641 5641 5641 5642 5641 5641 5641 5640 5640 5639 5639 5638 5638 5637 5637 5637 5638 5638 5638 5639 5640 5641 5642 5643 5644 5645
5635 5635 5635 5635 5635 5635 5635 5634 5633 5633 5632 5631 5631 5632 5632 5633 5633 5633 5633 5633 5633 5633 5633 5632 5632 5631 5631 5630 5630 5629 5628 5628 5628 5628 5628 5628 5629 5629 5629 5630 5631 5632 5634 5635
5630 5630 5630 5630 5630 5630 5629 5628 5628 5627 5626 5626 5626 5626 5626 5626 5626 5626 5626 5626 5625 5625 5624 5624 5624 5623 5622 5622 5621 5621 5620 5619 5619 5619 5619 5619 5619 5619 5620 5620 5621 5622 5623 5624
5625 5625 5625 5625 5624 5624 5624 5623 5622 5622 5621 5621 5620 5620 5620 5619 5619 5618 5618 5618 5617 5617 5616 5616 5616 5615 5614 5614 5613 5612 5612 5611 5611 5610 5610 5609 5609 5610 5610 5611 5612 5612 5613 5614
5620 5620 5620 5619 5619 5619 5618 5618 5617 5616 5615 5615 5614 5614 5613 5613 5612 5611 5611 5610 5610 5609 5609 5608 5608 5607 5606 5605 5605 5604 5603 5602 5602 5602 5602 5601 5601 5601 5602 5602 5603 5603 5604 5605
5615 5615 5615 5614 5614 5613 5613 5612 5611 5610 5609 5608 5608 5607 5606 5606 5605 5604 5603 5603 5602 5601 5601 5600 5600 5599 5598 5597 5596 5596 5595 5594 5594 5594 5594 5593 5593 5593 5594 5594 5595 5595 5596 5596
5611 5610 5609 5609 5608 5607 5607 5606 5605 5604 5603 5602 5602 5601 5600 5599 5598 5597 5596 5596 5595 5594 5593 5592 5592 5591 5590 5589 5589 5588 5587 5587 5586 5586 5586 5585 5585 5585 5585 5586 5586 5587 5587 5588
5606 5605 5604 5603 5603 5602 5601 5600 5599 5598 5597 5596 5596 5595 5594 5593 5592 5591 5590 5589 5588 5587 5586 5585 5584 5584 5583 5582 5581 5580 5580 5579 5579 5578 5578 5578 5578 5578 5578 5578 5578 5578 5579 5579